Wind_Speed
20 17 15 14 12 10 7 6 4 2 2 2 3 3 4 5 6 8 8 8 10 11 11 11 11 11 11 11 10 10 9 8 7 7 7 6 7 6 6 6 5 4 4 4
22 18 16 16 15 14 11 9 7 6 4 4 2 2 3 3 4 5 6 7 7 9 10 10 10 10 10 10 10 10 9 8 8 7 7 6 6 6 6 5 4 4 4 4
23 19 19 18 17 15 13 11 9 8 6 6 4 2 1 2 4 4 5 5 6 6 7 8 9 9 9 9 9 9 9 8 8 8 7 6 5 5 4 4 3 3 3 3
25 23 22 20 18 17 16 13 11 11 9 8 7 5 4 4 4 4 4 4 4 4 6 6 7 7 8 8 8 8 8 8 7 7 7 6 6 5 4 3 3 3 3 2
26 25 24 22 20 19 19 16 15 13 12 11 9 7 5 6 4 4 3 4 3 3 4 4 4 5 6 6 6 7 7 7 7 6 6 6 5 4 3 3 3 2 2 1
28 27 26 24 23 21 21 18 17 16 14 13 10 9 7 6 5 4 4 3 4 3 3 3 3 3 4 4 5 5 5 5 5 5 5 4 4 3 2 1 1 1 1 1
30 29 28 26 26 24 22 20 19 18 17 15 13 11 7 6 6 6 6 5 5 5 4 3 2 3 3 3 4 4 4 3 3 3 3 3 3 3 1 0 1 1 2 2
30 31 29 27 26 25 24 22 21 20 19 17 15 13 9 8 8 8 8 7 7 6 5 5 3 3 3 3 3 4 3 2 2 3 3 3 3 3 2 1 2 2 2 3
30 30 29 29 27 26 25 25 23 23 21 20 18 15 11 9 9 10 9 8 8 8 8 7 6 5 5 5 4 4 3 3 3 3 3 2 2 2 2 2 3 3 3 4
29 30 30 29 29 28 27 25 25 25 23 22 20 17 15 12 10 10 10 10 11 11 11 10 7 7 7 7 5 4 4 4 4 4 4 4 4 4 4 4 4 4 5 5
29 30 30 30 30 29 29 28 27 26 25 24 22 18 15 14 13 12 11 12 13 12 11 10 9 9 9 9 7 6 6 6 6 6 6 6 6 6 7 7 7 7 8 8
29 30 30 30 30 30 31 30 29 28 27 25 24 20 16 16 15 14 14 14 13 12 12 12 11 11 11 11 10 9 9 9 9 9 9 9 8 9 9 9 9 9 10 10
29 30 30 32 32 32 32 32 30 29 28 27 26 22 19 19 17 16 15 16 14 14 15 14 14 14 13 13 12 12 12 11 12 11 11 11 11 12 12 12 12 12 12 12
30 31 32 32 32 32 32 31 30 30 30 29 27 24 22 20 19 18 17 16 15 15 15 16 16 16 15 15 14 13 13 13 14 13 13 14 14 14 14 14 14 14 14 14
30 31 31 31 32 32 32 31 31 31 30 30 28 26 24 22 20 19 19 19 18 17 17 17 18 18 18 17 16 15 15 15 16 16 15 16 16 16 16 16 16 17 17 17
30 30 31 31 32 33 33 32 31 31 30 29 29 27 25 24 23 21 21 21 20 19 20 19 20 20 20 19 18 18 18 18 18 18 19 19 19 18 18 19 19 20 20 20
30 30 30 30 30 31 33 32 31 31 29 28 29 27 26 26 25 24 24 23 22 22 22 22 22 22 22 21 21 20 21 21 21 21 21 21 22 22 22 22 22 23 23 24
29 30 31 31 31 32 30 30 31 31 31 30 29 28 28 28 27 26 25 25 24 24 23 23 23 24 24 24 24 23 23 23 23 24 23 23 23 23 24 25 25 26 26 26
30 30 30 31 31 31 30 29 29 30 31 31 30 29 29 28 29 27 27 26 26 25 25 25 25 26 26 24 24 25 24 24 24 24 23 24 24 25 25 26 27 27 27 28
31 31 31 31 31 31 29 29 29 29 30 29 30 30 29 29 30 28 27 27 27 26 27 26 26 26 26 25 25 25 26 26 26 26 25 25 25 25 26 26 27 28 29 30
31 31 31 31 31 30 29 29 28 29 28 27 29 30 30 30 30 28 28 28 27 27 28 28 27 27 27 26 26 27 28 28 28 28 26 26 27 27 27 28 28 29 30 31
31 30 30 31 31 30 28 28 29 29 28 28 29 29 30 30 30 29 29 29 28 28 29 28 28 27 27 27 27 27 29 30 30 29 27 28 28 28 29 29 29 30 31 32
31 31 29 30 30 28 28 28 29 30 29 29 30 29 30 30 29 29 28 28 28 29 29 29 29 28 28 28 28 28 29 30 31 30 29 29 29 30 30 31 31 32 32 32
30 31 30 29 29 29 28 28 29 30 30 29 30 30 30 30 31 30 29 28 27 28 28 29 28 27 28 28 29 29 30 30 31 31 30 29 30 31 31 32 33 33 34 34
28 30 30 29 29 29 29 29 29 30 29 29 29 29 28 29 29 29 29 28 28 28 28 28 28 28 28 29 30 30 32 32 32 32 31 30 30 31 32 33 33 34 34 34
28 28 29 29 29 29 28 29 29 29 28 28 28 28 28 28 28 27 27 27 27 27 27 27 28 29 30 31 31 32 32 32 32 31 31 31 31 32 33 34 34 34 34 34
Wind_Direction
222 220 220 224 230 229 229 230 232 260 307 345 14 24 19 19 23 22 25 32 43 47 48 53 56 54 51 51 55 61 65 69 74 79 85 91 98 96 101 108 110 112 120 133
222 221 220 223 229 233 237 236 240 254 283 304 330 353 5 12 13 8 13 19 33 46 49 52 54 53 53 52 55 60 63 66 72 77 79 85 92 91 87 89 99 113 120 119
224 222 222 227 228 233 237 238 243 254 277 292 300 292 310 339 349 355 4 6 18 38 49 54 55 51 54 56 57 60 61 64 70 72 75 83 89 91 90 90 93 99 111 111
222 221 223 227 230 233 234 236 246 254 266 282 291 282 274 289 317 336 349 350 359 25 42 49 53 51 53 55 55 57 60 62 67 69 72 78 81 82 88 93 98 100 101 109
222 221 223 226 230 233 235 239 245 253 261 270 278 280 279 277 295 310 320 331 339 1 23 36 41 48 47 50 51 53 57 62 66 65 67 69 73 77 89 106 112 114 108 120
222 223 224 226 229 232 235 239 245 252 258 261 268 277 282 268 270 288 296 295 295 305 334 12 23 27 31 39 39 40 47 57 60 58 57 55 54 56 67 107 140 149 153 159
222 223 224 226 227 230 234 239 246 251 257 260 261 268 272 261 267 276 277 275 280 286 297 317 349 352 1 18 25 22 23 43 50 42 33 24 27 27 23 234 212 227 233 242
223 223 224 226 228 234 238 242 246 251 256 259 257 262 262 267 270 273 273 268 274 280 284 293 300 307 308 322 336 342 346 348 7 7 359 355 357 357 353 302 252 260 260 263
225 225 226 228 229 234 237 240 245 251 255 253 255 260 262 267 269 271 273 270 273 271 277 287 282 281 280 284 289 303 304 291 305 321 324 319 321 318 310 294 286 279 277 272
228 226 225 229 231 233 235 237 242 248 252 252 255 260 260 261 267 270 271 270 267 265 269 272 270 271 273 274 277 284 297 290 295 294 296 291 291 295 296 298 301 291 283 279
229 229 227 230 232 233 235 238 242 246 250 255 257 260 260 259 260 268 273 282 275 265 263 264 262 266 270 271 277 284 283 283 288 291 291 292 294 294 291 287 290 291 286 282
230 230 228 229 232 235 238 240 243 246 251 256 259 261 260 260 260 265 273 278 276 264 258 257 260 263 265 271 275 280 281 280 282 285 286 285 285 285 284 283 284 287 287 283
230 231 231 230 232 234 238 240 242 246 250 255 259 261 261 263 263 267 272 274 272 266 262 262 262 265 266 269 274 276 279 277 276 280 283 283 282 280 279 278 279 282 284 285
234 235 236 236 235 236 238 241 243 246 250 255 258 260 260 264 263 264 266 268 267 266 267 265 265 266 268 269 272 272 276 275 274 277 278 278 278 279 280 279 278 279 281 283
235 237 238 238 237 237 239 241 244 247 251 255 258 259 259 261 262 262 261 263 264 263 266 267 266 266 265 267 268 269 270 271 273 275 276 274 275 276 277 278 277 278 280 281
235 237 238 238 238 240 240 241 244 247 251 255 257 258 257 259 261 260 260 261 264 264 264 266 266 264 264 266 265 267 270 272 274 273 274 272 272 272 274 275 277 278 278 280
235 236 237 240 241 242 242 243 244 245 248 252 255 257 258 261 259 259 260 261 263 261 260 263 265 263 263 264 263 265 268 271 273 271 269 270 272 272 272 275 276 277 277 277
234 236 239 242 243 244 242 241 244 246 248 251 253 255 256 258 256 257 258 260 260 262 260 259 261 262 263 263 263 265 266 266 267 270 270 272 274 276 274 274 275 275 275 276
234 236 240 242 245 247 245 244 245 249 250 250 252 253 255 256 255 255 255 256 260 263 262 262 262 263 264 265 267 266 267 265 266 268 270 272 274 275 276 276 276 276 275 274
234 235 239 243 246 247 248 247 248 251 251 250 250 252 255 255 255 256 257 257 258 261 262 263 265 264 263 264 265 266 267 266 266 267 270 272 275 277 279 279 278 278 278 277
235 236 239 243 246 249 250 250 250 250 251 251 251 252 254 256 257 258 260 260 259 260 261 262 263 264 265 266 268 268 267 268 268 270 272 272 274 276 278 279 279 280 280 279
237 238 239 243 247 250 251 251 250 251 250 251 251 252 253 256 257 257 260 260 258 260 262 262 263 263 264 266 268 269 269 269 270 272 274 275 276 277 279 280 281 282 282 281
238 239 242 244 247 249 250 251 251 252 254 254 253 254 254 256 257 257 259 259 257 258 260 261 263 264 264 266 267 268 270 273 275 276 277 277 277 279 280 282 282 282 284 283
238 241 243 244 245 248 250 252 254 254 256 256 255 255 255 257 256 255 257 257 256 258 259 260 261 263 264 266 268 269 272 275 279 278 278 278 278 280 281 281 283 283 284 282
241 243 245 245 245 248 251 254 256 256 255 255 256 255 253 254 254 255 256 257 256 257 260 261 261 263 265 266 269 270 273 276 278 278 276 276 278 280 281 283 284 285 284 283
244 247 246 246 247 250 253 256 254 253 255 256 256 253 251 253 254 255 256 256 256 258 261 261 262 264 267 270 272 272 274 276 277 276 275 276 278 280 281 283 285 286 286 285
Height
5889 5892 5894 5896 5897 5898 5898 5898 5898 5899 5899 5899 5899 5898 5897 5896 5895 5894 5893 5891 5889 5887 5886 5884 5883 5882 5881 5880 5879 5878 5878 5878 5878 5877 5877 5878 5878 5878 5879 5879 5880 5880 5880 5881
5887 5890 5893 5894 5895 5896 5897 5897 5898 5898 5898 5898 5898 5898 5897 5897 5896 5895 5894 5892 5891 5889 5887 5886 5885 5884 5883 5882 5881 5880 5880 5879 5879 5879 5879 5879 5879 5880 5880 5880 5881 5881 5881 5882
5884 5889 5890 5891 5893 5894 5895 5896 5897 5897 5897 5897 5898 5898 5898 5898 5897 5896 5894 5893 5892 5890 5888 5887 5887 5886 5885 5884 5883 5882 5882 5881 5881 5881 5880 5880 5881 5881 5881 5881 5882 5882 5882 5882
5881 5884 5887 5889 5890 5892 5893 5895 5895 5895 5896 5896 5897 5897 5898 5897 5897 5896 5895 5894 5892 5891 5889 5888 5888 5887 5886 5886 5885 5884 5883 5883 5883 5882 5882 5882 5882 5882 5882 5882 5882 5883 5883 5883
5877 5880 5883 5885 5888 5889 5891 5892 5893 5893 5894 5895 5895 5896 5897 5896 5896 5896 5895 5894 5892 5891 5890 5889 5888 5888 5887 5887 5886 5885 5885 5884 5884 5884 5884 5883 5883 5883 5883 5883 5883 5883 5883 5883
5873 5876 5879 5882 5885 5886 5888 5890 5890 5891 5892 5893 5894 5895 5896 5895 5895 5895 5894 5893 5892 5891 5890 5889 5889 5888 5888 5887 5887 5886 5886 5885 5885 5885 5885 5884 5884 5883 5883 5883 5883 5883 5883 5883
5867 5871 5874 5878 5880 5882 5884 5886 5888 5888 5889 5891 5892 5892 5894 5894 5893 5893 5893 5892 5892 5891 5890 5890 5889 5889 5888 5887 5887 5887 5886 5886 5885 5885 5885 5885 5884 5884 5883 5883 5883 5883 5883 5883
5863 5867 5870 5873 5876 5879 5880 5883 5885 5886 5887 5888 5889 5890 5892 5892 5891 5891 5891 5891 5890 5890 5890 5889 5889 5888 5888 5887 5887 5887 5886 5886 5885 5885 5885 5885 5884 5884 5883 5883 5882 5883 5883 5883
5858 5863 5866 5869 5872 5875 5876 5878 5881 5882 5883 5884 5885 5887 5889 5889 5889 5889 5889 5889 5889 5889 5888 5888 5887 5888 5887 5887 5886 5886 5885 5885 5885 5885 5884 5884 5884 5883 5883 5882 5882 5882 5882 5881
5853 5858 5861 5864 5867 5869 5872 5874 5876 5877 5878 5879 5881 5883 5886 5886 5886 5887 5887 5887 5887 5887 5886 5886 5886 5886 5886 5886 5885 5885 5885 5885 5884 5884 5884 5883 5883 5883 5882 5882 5881 5881 5880 5880
5847 5852 5856 5859 5861 5864 5867 5869 5871 5873 5874 5876 5877 5882 5882 5883 5884 5884 5884 5884 5884 5883 5883 5884 5884 5884 5884 5884 5884 5883 5883 5883 5883 5883 5882 5882 5882 5881 5881 5880 5880 5879 5879 5878
5842 5846 5849 5854 5857 5859 5862 5864 5866 5869 5870 5871 5873 5879 5879 5879 5880 5881 5881 5881 5881 5880 5880 5881 5881 5881 5882 5882 5882 5881 5881 5881 5881 5881 5880 5880 5880 5879 5879 5878 5878 5877 5877 5876
5836 5839 5843 5847 5852 5853 5855 5858 5860 5863 5865 5866 5868 5873 5874 5875 5876 5877 5877 5877 5877 5877 5877 5878 5878 5879 5879 5879 5879 5879 5879 5878 5878 5878 5878 5877 5877 5876 5876 5875 5875 5874 5873 5873
5830 5833 5837 5841 5844 5847 5850 5852 5855 5857 5858 5860 5863 5866 5869 5870 5871 5872 5873 5873 5873 5874 5874 5874 5875 5875 5875 5876 5876 5875 5875 5875 5875 5875 5874 5874 5873 5873 5872 5871 5871 5870 5870 5869
5823 5826 5830 5834 5838 5841 5844 5846 5849 5851 5853 5855 5858 5860 5863 5865 5866 5867 5868 5869 5869 5869 5870 5870 5870 5871 5871 5872 5871 5871 5871 5871 5871 5870 5870 5870 5869 5868 5868 5867 5867 5866 5866 5865
5816 5820 5823 5827 5831 5833 5836 5840 5842 5845 5847 5849 5851 5854 5857 5858 5860 5861 5862 5863 5864 5865 5865 5865 5865 5865 5866 5867 5867 5866 5866 5866 5866 5865 5865 5864 5864 5863 5863 5862 5862 5861 5861 5860
5810 5813 5817 5820 5824 5826 5829 5833 5836 5838 5841 5843 5845 5849 5850 5852 5853 5855 5856 5857 5858 5859 5860 5860 5860 5860 5860 5861 5861 5861 5861 5861 5860 5859 5858 5858 5858 5857 5857 5856 5855 5855 5854 5853
5804 5807 5810 5813 5817 5819 5825 5827 5830 5832 5834 5836 5838 5841 5843 5845 5847 5849 5850 5851 5852 5853 5853 5854 5854 5854 5854 5854 5854 5854 5854 5854 5854 5853 5852 5852 5852 5851 5850 5849 5849 5848 5847 5846
5797 5801 5804 5807 5809 5813 5817 5820 5823 5825 5827 5829 5831 5833 5835 5837 5839 5841 5843 5844 5845 5846 5847 5847 5848 5848 5847 5847 5847 5847 5847 5847 5847 5846 5845 5845 5845 5844 5842 5842 5841 5840 5839 5838
5790 5794 5798 5800 5803 5806 5811 5814 5815 5818 5819 5822 5824 5826 5828 5829 5831 5834 5835 5836 5838 5839 5839 5840 5840 5840 5840 5840 5840 5840 5840 5840 5840 5839 5838 5838 5837 5836 5835 5834 5833 5832 5830 5829
5784 5787 5790 5794 5796 5799 5803 5806 5808 5812 5814 5815 5816 5818 5820 5822 5824 5826 5827 5828 5830 5831 5831 5832 5832 5833 5833 5833 5833 5833 5833 5833 5833 5831 5830 5830 5829 5828 5827 5826 5825 5824 5822 5821
5778 5781 5784 5787 5790 5795 5796 5798 5801 5803 5805 5807 5808 5810 5811 5813 5815 5817 5818 5820 5821 5822 5823 5823 5824 5825 5825 5826 5826 5825 5825 5825 5824 5823 5822 5822 5821 5820 5819 5818 5816 5815 5814 5812
5771 5775 5777 5781 5785 5787 5789 5791 5793 5795 5797 5799 5801 5802 5804 5805 5807 5809 5810 5811 5812 5814 5815 5815 5816 5817 5817 5818 5818 5818 5817 5816 5815 5815 5814 5813 5813 5812 5810 5809 5808 5806 5805 5803
5765 5768 5771 5774 5777 5780 5782 5784 5786 5788 5789 5791 5792 5794 5795 5797 5799 5800 5802 5803 5804 5805 5806 5807 5807 5808 5809 5809 5809 5809 5808 5807 5806 5806 5805 5805 5804 5803 5801 5800 5798 5797 5795 5793
5759 5762 5764 5767 5770 5773 5775 5777 5778 5780 5781 5782 5784 5785 5786 5789 5790 5791 5793 5795 5796 5797 5797 5797 5798 5799 5800 5800 5800 5800 5799 5798 5798 5797 5796 5796 5795 5793 5792 5790 5788 5786 5784 5783
5753 5756 5758 5761 5764 5766 5768 5769 5770 5772 5773 5774 5776 5777 5778 5780 5782 5783 5785 5786 5787 5788 5789 5789 5790 5791 5791 5792 5791 5791 5790 5789 5789 5787 5787 5786 5785 5784 5782 5780 5778 5776 5774 5772